sat.trackr.live / text

‹ back to catalog

ONEWEB-0619

NORAD 55160 · 2023-004W

PAYLOAD ACTIVE UNKNOWN

§ Identity

Operator
Country
UK
Launch date
2023-01-10
Launch site
AFETR
Launch vehicle
Mass (kg)
RCS (m²)

Purposes: comms

External: N2YO · Heavens-Above · Gunter

§ Orbital elements

Epoch: 2026-05-25T02:10:19.599168Z

Period
109.29 min
Inclination
87.9161°
Eccentricity
0.0002236
Mean motion
13.17649423 rev/d
Perigee alt
1,192.0 km
Apogee alt
1,195.4 km
Semi-major
7,571.8 km
B*
-2.1860e-5
RAAN
10.4397°
Arg perigee
80.5686°
Mean anomaly
279.5698°
Rev number
16,455

§ Raw data

ONEWEB-06191 55160U 23004W   26145.09050462  .00000004  00000+0 -21860-4 0  99952 55160  87.9161  10.4397 0002236  80.5686 279.5698 13.17649423164558

JSON: /api/v1/satellites/55160 · /tle

For live sub-satellite position, see the globe view (requires WebGL).

§ Visibility from observer

Set your observer location to see the next 7 days of passes ≥ 10°. The values pass through the URL so the page stays shareable.

No JS? Fill the form by hand. The geolocation button needs JavaScript.